KOREASAT 7 (42691 NORAD) Tracking and Keplerian Element Data

This shows tracking and keplerian element data for the satellite.

Feedback or suggestion? Click here.




ElementValue
Catalog42691
NameKOREASAT 7
Epoch Orbit1974
Epoch Day269.85952056
Epoch Year2022
RAAN73.4589
Inclination0.0249
Eccentricity0.0002104
Argument of Perigee123.1381
Mean Anonmoly234.3807
Mean Motion1.00271388
Decay Rate-3.59E-06
L11 42691U 17023A 22269.85952056 -.00000359 00000+0 00000+0 0 9992
L22 42691 0.0249 73.4589 0002104 123.1381 234.3807 1.00271388 19749

Live tracking and technical data element details for KOREASAT 7 (NORAD 42691). KOREASAT 7 can be tracked NOW for your location showing map with azimuth and elevation plus other details from your city location.

Track the satellite on the map from your city or location and see movement details for azimuth, elevation, latitude, longitude, range, height, and movement on the map or in text.







IsCatalogInMostPopularTable: catalog: 42691, numindb: 635
Update: records affected: 1



GetName: 42691 KOREASAT 7

Hit Count: updated at: Thu, 29 Sep 2022 11:01:20 GMT